Probability
0 0 0 0 0 0 0 0 0 0 0 0 0 0 0 0 0 0 0 0 0 0 0 1 2 3 2 2 3 2 1 0 0 0 0 0 0 0 0 0 0 0 0 0
0 0 0 0 0 0 0 0 0 0 0 0 0 0 0 0 0 0 0 0 0 0 0 1 2 3 3 3 2 2 1 0 0 0 0 0 0 0 0 0 0 0 0 0
0 0 0 0 0 0 0 0 0 0 0 0 0 0 0 0 0 0 0 0 0 0 0 0 1 2 3 3 2 1 0 0 0 0 0 0 0 0 0 0 0 0 0 0
0 0 0 0 0 0 0 0 0 0 0 0 0 0 0 0 0 0 0 0 0 0 0 0 0 1 3 3 3 2 1 0 0 0 0 0 0 0 0 0 0 0 0 0
0 0 0 0 0 0 0 0 0 0 0 0 0 0 0 0 0 0 0 0 0 0 0 0 0 1 2 3 3 3 2 1 1 0 0 0 0 0 0 0 0 0 0 0
0 0 0 0 0 0 0 0 0 0 0 0 0 0 0 0 0 0 0 0 0 0 0 0 0 1 2 2 3 3 3 3 2 1 0 0 0 0 0 0 0 0 0 0
0 0 0 0 0 0 0 0 0 0 0 0 0 0 0 0 0 0 0 0 0 0 0 0 0 0 1 1 1 2 2 2 2 2 1 1 0 0 0 0 0 0 0 0
0 0 0 0 0 0 0 0 0 0 0 0 0 0 0 0 0 0 0 0 0 0 0 0 0 0 0 0 0 1 1 1 1 2 2 2 1 1 0 0 0 0 0 0
0 0 0 0 0 0 0 0 0 0 0 0 0 0 0 0 0 0 0 0 0 0 0 0 0 0 0 0 0 0 0 0 0 1 2 2 2 2 1 1 0 0 0 0
0 0 0 0 0 0 0 0 0 0 0 0 0 0 0 0 0 0 0 0 0 0 0 0 0 0 0 0 0 0 0 0 0 0 1 1 1 2 2 2 1 0 0 0
0 0 0 0 0 0 0 0 0 0 0 0 0 0 0 0 0 0 0 0 0 0 0 0 0 0 0 0 0 0 0 0 0 0 0 0 0 1 2 2 1 0 0 0
0 0 0 0 0 0 0 0 0 0 0 0 0 0 0 0 0 0 0 0 0 0 0 0 0 0 0 0 0 0 0 0 0 0 0 0 0 0 1 1 0 0 0 0
0 0 0 0 0 0 0 0 0 0 0 0 0 0 0 0 0 0 0 0 0 0 0 0 0 0 0 0 0 0 0 0 0 0 0 0 0 0 0 0 0 0 0 0
0 0 0 0 0 0 0 0 0 0 0 0 0 0 0 0 0 0 0 0 0 0 0 0 0 0 0 0 0 0 0 0 0 0 0 0 0 0 0 0 0 0 0 0
0 0 0 0 0 0 0 0 0 0 0 0 0 0 0 0 0 0 0 0 0 0 0 0 0 0 0 0 0 0 0 0 0 0 0 0 0 0 0 0 0 0 0 0
0 0 0 0 0 0 0 0 0 0 0 0 0 0 0 0 0 0 0 0 0 0 0 0 0 0 0 0 0 0 0 0 0 0 0 0 0 0 0 0 0 0 0 0
0 0 0 0 0 0 0 0 0 0 0 0 0 0 0 0 0 0 0 0 0 0 0 0 0 0 0 0 0 0 0 0 0 0 0 0 0 0 0 0 0 0 0 0
0 0 0 0 0 0 0 0 0 0 0 0 0 0 0 0 0 0 0 0 0 0 0 0 0 0 0 0 0 0 0 0 0 0 0 0 0 0 0 0 0 0 0 0
0 0 0 0 0 0 0 0 0 0 0 0 0 0 0 0 0 0 0 0 0 0 0 0 0 0 0 0 0 0 0 0 0 0 0 0 0 0 0 0 0 0 0 0
0 0 0 0 0 0 0 0 0 0 0 0 0 0 0 0 0 0 0 0 0 0 0 0 0 0 0 0 0 0 0 0 0 0 0 0 0 0 0 0 0 0 0 0
0 0 0 0 0 0 0 0 0 0 0 0 0 0 0 0 0 0 0 0 0 0 0 0 0 0 0 0 0 0 0 0 0 0 0 0 0 0 0 0 0 0 0 0
0 0 0 0 0 0 0 0 0 0 0 0 0 0 0 0 0 0 0 0 0 0 0 0 0 0 0 0 0 0 0 0 0 0 0 0 0 0 0 0 0 0 0 0
0 0 0 0 0 0 0 0 0 0 0 0 0 0 0 0 0 0 0 0 0 0 0 0 0 0 0 0 0 0 0 0 0 0 0 0 0 0 0 0 0 0 0 0
0 0 0 0 0 0 0 0 0 0 0 0 0 0 0 0 0 0 0 0 0 0 0 0 0 0 0 0 0 0 0 0 0 0 0 0 0 0 0 0 0 0 0 0
0 0 0 0 0 0 0 0 0 0 0 0 0 0 0 0 0 0 0 0 0 0 0 0 0 0 0 0 0 0 0 0 0 0 0 0 0 0 0 0 0 0 0 0
0 0 0 0 0 0 0 0 0 0 0 0 0 0 0 0 0 0 0 0 0 0 0 0 0 0 0 0 0 0 0 0 0 0 0 0 0 0 0 0 0 0 0 0
Wind_Speed
1 1 2 2 3 4 4 5 6 4 1 4 8 10 8 6 6 6 6 5 5 5 5 5 5 5 5 5 5 5 5 4 3 2 2 2 1 1 1 1 1 1 1 0
2 2 3 3 3 4 5 6 6 3 1 4 7 10 8 7 7 7 6 6 5 4 5 5 5 5 5 6 6 5 5 5 4 3 2 1 1 1 1 1 1 1 1 1
3 1 2 4 3 4 4 4 4 5 6 5 6 8 5 5 6 6 6 5 5 5 5 6 6 5 5 6 6 5 5 5 4 3 2 2 1 1 1 1 1 1 1 1
1 2 3 2 3 3 4 2 3 5 4 3 2 6 5 5 6 7 6 6 6 6 6 6 6 6 6 6 5 5 5 5 5 4 3 4 3 2 2 2 1 1 1 2
1 1 2 3 2 3 1 3 3 4 4 5 4 4 7 4 6 8 8 7 7 6 6 6 6 6 5 5 5 5 5 5 5 4 4 4 3 2 1 1 2 2 2 2
1 1 1 1 1 2 1 3 3 3 2 5 5 4 6 4 6 6 7 7 7 6 5 5 5 5 5 5 5 5 5 5 5 5 5 4 4 3 2 2 2 2 1 2
2 3 2 1 1 2 2 0 1 2 1 6 3 4 8 4 2 4 6 6 6 5 5 5 5 6 5 5 5 5 5 5 5 5 5 4 4 4 4 3 3 2 2 2
3 3 4 2 2 2 3 2 2 2 3 4 2 6 5 1 2 2 3 5 6 6 5 5 5 5 5 5 5 5 5 5 5 5 5 4 4 3 3 3 2 3 2 2
2 2 2 1 1 2 2 3 1 1 1 3 6 4 2 1 1 2 2 3 4 5 5 5 4 4 5 5 5 6 5 4 4 4 4 4 4 3 3 3 2 2 2 2
1 1 1 2 2 3 2 1 1 2 2 4 5 4 4 3 3 3 3 3 3 4 4 4 4 4 3 4 4 5 5 5 4 4 4 4 4 4 3 3 2 2 2 2
1 1 1 2 5 5 4 3 3 2 3 3 4 5 1 3 4 4 4 3 3 4 4 4 3 3 3 3 4 4 4 4 4 4 4 3 3 3 3 3 3 3 2 2
1 1 2 3 1 1 3 4 5 3 4 4 3 8 2 2 2 2 2 2 2 3 3 3 4 3 3 3 4 4 4 4 4 4 4 4 3 3 3 3 3 3 3 3
2 2 0 2 1 1 3 4 3 2 1 4 5 8 1 1 0 0 1 2 2 2 2 2 3 3 3 3 3 4 4 4 4 4 4 3 3 3 3 3 3 3 3 3
1 3 5 6 3 3 4 5 5 5 5 6 9 9 6 4 3 2 1 2 2 2 2 2 2 2 2 3 3 3 3 3 3 3 4 4 4 4 3 3 3 3 3 3
1 4 5 6 6 4 7 8 9 10 10 9 9 8 11 7 4 2 1 0 1 1 1 1 2 2 2 2 3 3 3 3 3 3 3 4 3 3 2 2 2 2 3 3
2 3 2 6 5 5 9 11 12 12 11 12 12 14 10 6 2 1 1 0 1 1 1 1 1 2 2 2 2 2 2 2 2 3 3 2 2 2 2 2 2 2 2 2
4 3 2 5 2 4 11 11 14 10 10 10 13 12 6 4 2 2 2 1 2 2 2 2 2 2 2 2 2 3 2 2 2 2 2 2 1 2 2 2 3 3 3 2
5 4 3 3 1 9 9 2 8 9 8 10 9 7 4 4 2 1 1 1 2 2 2 2 2 2 1 1 1 1 2 3 3 2 2 2 2 2 2 2 3 3 2 3
5 6 4 3 5 11 7 3 5 7 7 8 11 9 6 3 2 3 2 2 3 3 2 2 1 1 0 0 1 1 2 2 2 3 3 2 3 3 3 3 4 3 3 3
1 3 4 5 5 9 5 2 2 3 5 4 5 5 3 0 2 4 2 2 2 2 1 1 1 0 0 0 1 2 2 3 4 4 3 3 3 3 4 4 3 2 3 3
4 4 7 8 8 11 5 2 4 4 5 1 1 2 1 3 5 3 3 2 2 2 1 1 0 0 0 1 1 2 3 4 3 2 2 3 3 3 3 3 2 2 2 2
10 9 9 6 8 12 3 5 6 5 0 1 1 1 2 4 4 4 3 3 2 3 3 2 1 1 1 1 1 3 4 3 1 1 2 2 2 2 2 2 2 2 3 3
9 9 7 10 11 3 7 6 3 1 1 1 2 3 3 4 5 5 4 4 3 2 2 2 1 2 1 1 2 4 3 0 1 1 2 2 2 2 2 2 3 2 3 3
5 2 3 6 9 4 3 3 3 2 2 3 3 3 3 5 6 6 5 4 3 3 3 2 2 2 3 2 2 3 2 0 2 3 3 2 2 2 2 2 3 3 3 4
5 4 4 8 7 6 5 4 5 4 4 4 5 4 4 5 7 6 5 4 3 3 3 2 2 3 4 2 2 2 1 2 2 3 2 2 2 3 3 3 3 4 4 4
5 6 7 9 5 4 5 3 3 3 5 5 5 6 5 4 6 6 5 4 3 3 3 3 3 4 4 3 3 2 2 2 3 3 3 3 3 3 3 3 3 4 4 4
Wind_Direction
174 181 206 227 244 282 299 288 282 280 270 263 256 264 260 239 232 239 231 217 213 206 185 172 170 171 173 170 169 171 172 170 161 163 171 178 188 184 150 157 145 142 129 142
167 227 254 274 274 275 276 279 285 300 330 284 275 271 251 230 225 224 222 216 211 199 182 171 172 170 178 175 177 179 181 175 179 182 176 168 150 174 179 166 157 160 157 171
197 234 266 254 269 276 268 272 291 298 305 270 284 280 233 218 219 220 217 210 205 198 192 178 173 176 183 181 182 184 183 179 182 173 149 128 124 137 168 204 193 191 180 176
219 239 261 247 257 276 267 318 298 295 302 287 276 290 252 209 215 217 213 206 203 195 194 184 176 181 188 185 180 181 181 179 179 171 169 171 181 192 204 199 193 190 192 192
197 215 262 251 267 277 281 328 293 282 283 284 251 258 271 200 222 220 210 202 195 189 187 181 179 182 184 178 177 178 176 179 178 178 182 189 198 198 186 176 179 195 206 201
215 265 302 280 291 268 267 279 253 252 270 269 231 223 272 218 218 207 198 193 183 177 173 173 171 168 175 171 172 174 177 183 182 182 190 193 196 193 185 193 197 202 201 202
220 202 196 258 252 220 223 271 358 325 274 254 186 217 252 245 215 182 178 173 167 167 169 171 173 174 175 175 177 179 183 190 185 184 194 199 199 197 198 202 202 197 199 206
213 231 185 204 232 222 219 209 177 233 261 289 246 234 252 172 101 100 140 161 163 169 170 173 179 179 179 179 180 182 185 191 186 186 196 199 196 201 207 205 197 199 208 206
231 211 125 171 267 267 213 210 225 214 255 276 257 249 286 97 113 156 160 159 173 176 175 173 174 178 178 177 182 181 181 186 185 186 190 197 197 200 206 202 196 196 204 197
324 225 201 161 209 242 269 287 169 180 222 269 272 250 241 205 206 194 183 186 186 168 167 169 169 174 175 175 177 174 179 183 184 184 189 196 199 199 199 193 194 195 199 196
330 178 210 207 209 196 187 212 217 226 233 231 275 270 276 173 171 179 194 188 176 170 171 171 166 165 165 167 169 174 181 180 183 189 192 196 198 192 187 193 198 195 194 193
174 166 241 221 197 345 219 221 195 200 241 233 257 270 321 76 109 142 175 167 166 164 169 164 158 161 167 175 177 183 187 187 191 191 192 197 194 187 190 201 201 189 191 193
134 146 284 297 256 255 249 242 233 235 222 220 226 261 272 49 347 198 182 179 168 163 153 143 153 170 180 188 186 188 191 189 187 183 188 191 193 191 199 205 198 187 188 189
173 201 207 226 248 200 232 235 215 197 212 236 232 255 273 274 277 282 249 191 159 153 153 153 172 192 194 195 192 192 195 185 182 181 188 196 199 197 197 197 192 191 188 188
177 232 245 266 278 259 247 234 215 216 221 228 246 252 264 272 276 275 270 224 164 164 184 203 202 211 210 199 198 191 193 185 182 183 193 204 201 192 183 188 191 193 194 195
192 231 260 275 260 261 265 247 227 229 234 245 262 269 268 274 276 276 265 221 234 247 246 262 246 225 221 214 207 199 197 185 178 188 197 193 186 183 187 192 191 192 198 194
184 179 213 267 292 312 268 232 211 216 216 213 235 247 271 286 275 263 255 232 247 261 270 258 255 241 233 216 204 201 189 163 169 189 188 182 188 194 198 191 187 197 204 195
180 184 211 262 321 248 248 196 193 210 231 223 240 261 266 268 284 270 239 227 258 277 273 257 254 257 260 230 205 185 157 158 169 182 190 190 200 212 210 200 203 209 211 211
200 186 199 210 248 270 277 232 188 200 250 231 236 256 270 294 335 291 253 220 234 245 254 259 258 252 253 220 193 154 168 162 176 203 208 208 208 210 210 214 215 212 209 217
211 197 204 209 226 245 256 190 147 136 271 261 222 249 270 64 247 274 319 289 270 274 275 295 324 17 196 252 135 164 188 189 214 224 224 215 209 214 219 224 218 209 209 218
168 190 211 219 235 258 262 180 129 172 246 327 180 235 212 210 234 284 328 330 321 329 332 0 2 265 247 92 141 194 206 222 238 245 228 216 214 223 229 229 217 206 204 203
180 182 200 196 223 250 192 140 180 214 355 39 10 315 256 254 275 299 310 310 321 333 342 355 333 311 353 101 172 219 231 246 242 219 225 225 222 223 224 222 222 206 196 202
204 197 192 199 218 242 161 189 217 31 342 331 323 309 294 284 280 286 295 298 303 308 313 331 318 304 318 291 219 233 254 269 194 218 232 237 236 228 221 213 215 207 202 209
237 246 230 250 258 266 238 270 300 302 274 290 294 297 293 281 284 284 286 291 300 302 299 311 311 293 290 292 274 261 281 211 198 220 232 226 220 228 228 227 216 213 213 217
220 187 230 255 276 303 286 262 274 285 284 287 288 283 278 280 284 285 284 282 284 293 297 289 265 264 273 282 282 288 265 193 212 224 222 220 218 220 224 228 226 224 225 217
197 192 207 241 241 236 271 296 301 286 289 288 294 299 295 284 284 289 287 290 293 292 296 289 278 271 271 266 268 273 244 203 200 213 217 215 216 218 221 228 250 242 240 242